Time,TemperatureF,DewpointF,PressureIn,WindDirection,WindDirectionDegrees,WindSpeedMPH,WindSpeedGustMPH,Humidity,HourlyPrecipIn,Conditions,Clouds,dailyrainin,SoftwareType,DateUTC
2013-01-19 00:01:00,26.6,12.6,30.32,South,180,4.6,4.6,55,0.00,OVC,,0.00,WeatherDisplay:10.37,2013-01-19 05:01:00,
2013-01-19 00:03:00,26.6,12.6,30.32,SSW,202,4.6,4.6,55,0.00,OVC,,0.00,WeatherDisplay:10.37,2013-01-19 05:03:00,
2013-01-19 00:04:00,26.6,12.6,30.32,SSW,202,4.6,4.6,55,0.00,OVC,,0.00,WeatherDisplay:10.37,2013-01-19 05:04:00,
2013-01-19 00:09:00,26.6,12.2,30.32,SSW,202,4.6,4.6,54,0.00,OVC,,0.00,WeatherDisplay:10.37,2013-01-19 05:09:00,
2013-01-19 00:10:00,26.6,12.6,30.32,SSW,202,4.6,4.6,55,0.00,OVC,,0.00,WeatherDisplay:10.37,2013-01-19 05:10:00,
2013-01-19 00:15:00,26.6,12.6,30.32,South,180,2.3,2.3,55,0.00,OVC,,0.00,WeatherDisplay:10.37,2013-01-19 05:15:00,
2013-01-19 00:20:00,26.6,12.6,30.32,SW,225,3.5,3.5,55,0.00,SCT,,0.00,WeatherDisplay:10.37,2013-01-19 05:20:00,
2013-01-19 00:25:00,26.6,12.6,30.32,SW,225,4.6,4.6,55,0.00,SCT,,0.00,WeatherDisplay:10.37,2013-01-19 05:25:00,
2013-01-19 00:30:00,26.6,12.6,30.32,South,180,3.5,3.5,55,0.00,SCT,,0.00,WeatherDisplay:10.37,2013-01-19 05:30:00,
2013-01-19 00:36:00,26.6,13.0,30.32,South,180,2.3,2.3,56,0.00,SCT,,0.00,WeatherDisplay:10.37,2013-01-19 05:36:00,
2013-01-19 00:41:00,26.6,13.0,30.32,SSW,202,2.3,2.3,56,0.00,SCT,,0.00,WeatherDisplay:10.37,2013-01-19 05:41:00,
2013-01-19 00:46:00,26.6,13.0,30.32,SSW,202,2.3,2.3,56,0.00,SCT,,0.00,WeatherDisplay:10.37,2013-01-19 05:46:00,
2013-01-19 00:51:00,26.2,13.1,30.32,South,180,3.5,3.5,57,0.00,SCT,,0.00,WeatherDisplay:10.37,2013-01-19 05:51:00,
2013-01-19 00:56:00,26.2,13.1,30.32,SW,225,1.1,1.1,57,0.00,SCT,,0.00,WeatherDisplay:10.37,2013-01-19 05:56:00,
2013-01-19 01:01:00,26.2,13.1,30.32,SSW,202,3.5,3.5,57,0.00,SCT,,0.00,WeatherDisplay:10.37,2013-01-19 06:01:00,
2013-01-19 01:06:00,26.2,13.1,30.32,WSW,248,2.3,2.3,57,0.00,SCT,,0.00,WeatherDisplay:10.37,2013-01-19 06:06:00,
2013-01-19 01:11:00,26.2,13.1,30.32,SSW,202,2.3,2.3,57,0.00,SCT,,0.00,WeatherDisplay:10.37,2013-01-19 06:11:00,
2013-01-19 01:16:00,26.2,13.1,30.32,South,180,2.3,2.3,57,0.00,SCT,,0.00,WeatherDisplay:10.37,2013-01-19 06:16:00,
2013-01-19 01:21:00,26.2,13.5,30.32,WSW,248,1.1,1.4,58,0.00,SCT,,0.00,WeatherDisplay:10.37,2013-01-19 06:21:00,
2013-01-19 01:26:00,26.2,13.5,30.32,SW,225,2.3,2.3,58,0.00,SCT,,0.00,WeatherDisplay:10.37,2013-01-19 06:26:00,
2013-01-19 01:31:00,26.2,13.5,30.32,SSE,158,1.1,1.8,58,0.00,SCT,,0.00,WeatherDisplay:10.37,2013-01-19 06:31:00,
2013-01-19 01:36:00,26.6,13.8,30.32,SSW,202,3.5,3.5,58,0.00,SCT,,0.00,WeatherDisplay:10.37,2013-01-19 06:36:00,
2013-01-19 01:42:00,26.6,13.8,30.32,SW,225,4.6,4.6,58,0.00,SCT,,0.00,WeatherDisplay:10.37,2013-01-19 06:42:00,
2013-01-19 01:47:00,26.6,13.8,30.32,SW,225,2.3,2.3,58,0.00,SCT,,0.00,WeatherDisplay:10.37,2013-01-19 06:47:00,
2013-01-19 01:52:00,26.6,13.8,30.32,South,180,2.3,2.3,58,0.00,SCT,,0.00,WeatherDisplay:10.37,2013-01-19 06:52:00,
2013-01-19 01:57:00,26.6,13.8,30.32,South,180,1.1,1.1,58,0.00,SCT,,0.00,WeatherDisplay:10.37,2013-01-19 06:57:00,
2013-01-19 02:02:00,26.6,13.8,30.32,South,180,4.6,4.6,58,0.00,SCT,,0.00,WeatherDisplay:10.37,2013-01-19 07:02:00,
2013-01-19 02:07:00,26.6,13.8,30.32,South,180,4.6,4.6,58,0.00,SCT,,0.00,WeatherDisplay:10.37,2013-01-19 07:07:00,
2013-01-19 02:12:00,27.0,14.5,30.32,SSW,202,4.6,4.6,59,0.00,SCT,,0.00,WeatherDisplay:10.37,2013-01-19 07:12:00,
2013-01-19 02:17:00,27.0,14.5,30.32,WSW,248,4.6,4.6,59,0.00,SCT,,0.00,WeatherDisplay:10.37,2013-01-19 07:17:00,
2013-01-19 02:22:00,27.3,14.9,30.32,SW,225,4.6,4.6,59,0.00,SCT,,0.00,WeatherDisplay:10.37,2013-01-19 07:22:00,
2013-01-19 02:27:00,27.3,14.9,30.32,South,180,6.1,6.1,59,0.00,SCT,,0.00,WeatherDisplay:10.37,2013-01-19 07:27:00,
2013-01-19 02:33:00,27.3,14.9,30.32,South,180,6.2,6.2,59,0.00,SCT,,0.00,WeatherDisplay:10.37,2013-01-19 07:33:00,
2013-01-19 02:38:00,27.5,15.0,30.32,SW,225,5.6,5.6,59,0.00,SCT,,0.00,WeatherDisplay:10.37,2013-01-19 07:38:00,
2013-01-19 02:43:00,27.5,15.0,30.32,SSW,202,6.9,6.9,59,0.00,SCT,,0.00,WeatherDisplay:10.37,2013-01-19 07:43:00,
2013-01-19 02:48:00,27.5,15.0,30.32,SSE,158,4.6,4.6,59,0.00,SCT,,0.00,WeatherDisplay:10.37,2013-01-19 07:48:00,
2013-01-19 02:53:00,27.5,15.0,30.32,SW,225,4.6,4.6,59,0.00,SCT,,0.00,WeatherDisplay:10.37,2013-01-19 07:53:00,
2013-01-19 02:58:00,27.7,15.2,30.32,SW,225,8.1,8.1,59,0.00,SCT,,0.00,WeatherDisplay:10.37,2013-01-19 07:58:00,
2013-01-19 03:03:00,27.7,15.2,30.32,SSW,202,9.2,9.2,59,0.00,SCT,,0.00,WeatherDisplay:10.37,2013-01-19 08:03:00,
2013-01-19 03:08:00,27.7,15.2,30.32,South,180,3.5,3.5,59,0.00,SCT,,0.00,WeatherDisplay:10.37,2013-01-19 08:08:00,
2013-01-19 03:13:00,27.7,15.2,30.32,South,180,6.9,6.9,59,0.00,SCT,,0.00,WeatherDisplay:10.37,2013-01-19 08:13:00,
2013-01-19 03:18:00,28.0,15.9,30.32,SW,225,11.5,11.5,60,0.00,SCT,,0.00,WeatherDisplay:10.37,2013-01-19 08:18:00,
2013-01-19 03:23:00,28.0,15.9,30.32,SW,225,4.7,4.7,60,0.00,SCT,,0.00,WeatherDisplay:10.37,2013-01-19 08:23:00,
2013-01-19 03:28:00,28.0,15.9,30.32,NNE,22,5.8,5.8,60,0.00,SCT,,0.00,WeatherDisplay:10.37,2013-01-19 08:28:00,
2013-01-19 03:33:00,28.0,15.9,30.32,South,180,8.1,8.1,60,0.00,SCT,,0.00,WeatherDisplay:10.37,2013-01-19 08:33:00,
2013-01-19 03:38:00,28.0,15.9,30.32,SW,225,8.1,8.1,60,0.00,SCT,,0.00,WeatherDisplay:10.37,2013-01-19 08:38:00,
2013-01-19 03:43:00,28.0,15.9,30.32,SSE,158,8.1,8.1,60,0.00,SCT,,0.00,WeatherDisplay:10.37,2013-01-19 08:43:00,
2013-01-19 03:48:00,28.0,15.9,30.32,South,180,5.8,5.8,60,0.00,SCT,,0.00,WeatherDisplay:10.37,2013-01-19 08:48:00,
2013-01-19 03:53:00,28.0,16.3,30.32,SW,225,6.9,6.9,61,0.00,SCT,,0.00,WeatherDisplay:10.37,2013-01-19 08:53:00,
2013-01-19 03:58:00,28.0,16.3,30.32,South,180,5.8,5.8,61,0.00,SCT,,0.00,WeatherDisplay:10.37,2013-01-19 08:58:00,
2013-01-19 04:03:00,27.7,16.0,30.32,SE,135,2.3,2.8,61,0.00,SCT,,0.00,WeatherDisplay:10.37,2013-01-19 09:03:00,
2013-01-19 04:08:00,28.0,16.7,30.32,SW,225,5.8,5.8,62,0.00,SCT,,0.00,WeatherDisplay:10.37,2013-01-19 09:08:00,
2013-01-19 04:13:00,27.7,16.3,30.32,South,180,4.6,4.6,62,0.00,SCT,,0.00,WeatherDisplay:10.37,2013-01-19 09:13:00,
2013-01-19 04:18:00,27.7,16.3,30.32,South,180,6.0,6.0,62,0.00,SCT,,0.00,WeatherDisplay:10.37,2013-01-19 09:18:00,
2013-01-19 04:23:00,27.7,16.3,30.32,South,180,3.5,3.5,62,0.00,SCT,,0.00,WeatherDisplay:10.37,2013-01-19 09:23:00,
2013-01-19 04:28:00,27.7,16.7,30.32,West,270,2.3,2.3,63,0.00,SCT,,0.00,WeatherDisplay:10.37,2013-01-19 09:28:00,
2013-01-19 04:33:00,27.7,16.7,30.32,WSW,248,4.6,4.6,63,0.00,SCT,,0.00,WeatherDisplay:10.37,2013-01-19 09:33:00,
2013-01-19 04:38:00,27.7,16.7,30.32,South,180,3.5,3.5,63,0.00,SCT,,0.00,WeatherDisplay:10.37,2013-01-19 09:38:00,
2013-01-19 04:43:00,27.7,16.7,30.32,SW,225,2.3,2.3,63,0.00,SCT,,0.00,WeatherDisplay:10.37,2013-01-19 09:43:00,
2013-01-19 04:48:00,27.5,16.5,30.32,SSW,202,3.9,3.9,63,0.00,SCT,,0.00,WeatherDisplay:10.37,2013-01-19 09:48:00,
2013-01-19 04:53:00,27.5,16.5,30.32,South,180,1.1,1.1,63,0.00,SCT,,0.00,WeatherDisplay:10.37,2013-01-19 09:53:00,
2013-01-19 04:58:00,27.5,16.9,30.32,WSW,248,2.3,2.3,64,0.00,SCT,,0.00,WeatherDisplay:10.37,2013-01-19 09:58:00,
2013-01-19 05:03:00,27.7,17.1,30.32,South,180,4.6,4.6,64,0.00,SCT,,0.00,WeatherDisplay:10.37,2013-01-19 10:03:00,
2013-01-19 05:08:00,27.7,17.4,30.32,SSW,202,2.3,2.3,65,0.00,SCT,,0.00,WeatherDisplay:10.37,2013-01-19 10:08:00,
2013-01-19 05:13:00,27.7,17.4,30.32,SSW,202,3.5,3.5,65,0.00,SCT,,0.00,WeatherDisplay:10.37,2013-01-19 10:13:00,
2013-01-19 05:18:00,28.0,17.8,30.32,NE,45,3.5,3.5,65,0.00,SCT,,0.00,WeatherDisplay:10.37,2013-01-19 10:18:00,
2013-01-19 05:23:00,28.0,18.1,30.32,SW,225,2.3,2.3,66,0.00,SCT,,0.00,WeatherDisplay:10.37,2013-01-19 10:23:00,
2013-01-19 05:28:00,28.0,18.1,30.32,South,180,1.1,1.6,66,0.00,SCT,,0.00,WeatherDisplay:10.37,2013-01-19 10:28:00,
2013-01-19 05:33:00,28.0,18.5,30.32,South,180,3.5,3.5,67,0.00,SCT,,0.00,WeatherDisplay:10.37,2013-01-19 10:33:00,
2013-01-19 05:38:00,28.0,18.5,30.32,WSW,248,3.2,3.2,67,0.00,SCT,,0.00,WeatherDisplay:10.37,2013-01-19 10:38:00,
2013-01-19 05:43:00,28.0,18.5,30.32,South,180,2.3,2.3,67,0.00,SCT,,0.00,WeatherDisplay:10.37,2013-01-19 10:43:00,
2013-01-19 05:48:00,28.4,18.8,30.32,WSW,248,2.3,2.3,67,0.00,SCT,,0.00,WeatherDisplay:10.37,2013-01-19 10:48:00,
2013-01-19 05:53:00,28.2,19.0,30.32,South,180,2.3,2.3,68,0.00,SCT,,0.00,WeatherDisplay:10.37,2013-01-19 10:53:00,
2013-01-19 05:58:00,28.4,19.2,30.32,SW,225,3.5,3.5,68,0.00,SCT,,0.00,WeatherDisplay:10.37,2013-01-19 10:58:00,
2013-01-19 06:03:00,28.4,19.2,30.32,SW,225,3.5,3.5,68,0.00,SCT,,0.00,WeatherDisplay:10.37,2013-01-19 11:03:00,
2013-01-19 06:08:00,28.4,19.2,30.32,West,270,3.5,3.5,68,0.00,SCT,,0.00,WeatherDisplay:10.37,2013-01-19 11:08:00,
2013-01-19 06:13:00,28.8,19.9,30.32,South,180,3.5,3.5,69,0.00,SCT,,0.00,WeatherDisplay:10.37,2013-01-19 11:13:00,
2013-01-19 07:48:00,29.3,21.4,30.32,SSW,202,5.8,5.8,72,0.00,SCT,,0.00,WeatherDisplay:10.37,2013-01-19 12:48:00,
2013-01-19 07:49:00,29.5,21.6,30.32,SW,225,8.1,8.1,72,0.00,SCT,,0.00,WeatherDisplay:10.37,2013-01-19 12:49:00,
2013-01-19 07:50:00,29.5,21.6,30.32,South,180,8.1,8.1,72,0.00,SCT,,0.00,WeatherDisplay:10.37,2013-01-19 12:50:00,
2013-01-19 07:55:00,29.8,21.9,30.32,SW,225,4.6,4.6,72,0.00,SCT,,0.00,WeatherDisplay:10.37,2013-01-19 12:55:00,
2013-01-19 08:00:00,29.7,22.1,30.32,WSW,248,2.3,3.2,73,0.00,SCT,,0.00,WeatherDisplay:10.37,2013-01-19 13:00:00,
2013-01-19 08:05:00,30.2,22.6,30.32,SW,225,6.9,6.9,73,0.00,SCT,,0.00,WeatherDisplay:10.37,2013-01-19 13:05:00,
2013-01-19 08:10:00,30.2,22.6,30.32,South,180,2.3,3.5,73,0.00,SCT,,0.00,WeatherDisplay:10.37,2013-01-19 13:10:00,
2013-01-19 08:15:00,30.6,22.9,30.32,SW,225,5.8,5.8,73,0.00,SCT,,0.00,WeatherDisplay:10.37,2013-01-19 13:15:00,
2013-01-19 08:20:00,30.9,23.3,30.32,SSW,202,2.3,3.9,73,0.00,SCT,,0.00,WeatherDisplay:10.37,2013-01-19 13:20:00,
2013-01-19 08:25:00,30.9,23.0,30.32,SW,225,2.3,2.5,72,0.00,SCT,,0.00,WeatherDisplay:10.37,2013-01-19 13:25:00,
2013-01-19 08:30:00,31.3,23.3,30.32,WSW,248,3.5,3.5,72,0.00,SCT,,0.00,WeatherDisplay:10.37,2013-01-19 13:30:00,
2013-01-19 08:35:00,31.8,24.1,30.32,SW,225,3.5,4.4,73,0.00,SCT,,0.00,WeatherDisplay:10.37,2013-01-19 13:35:00,
2013-01-19 08:40:00,32.4,24.3,30.32,South,180,6.9,6.9,72,0.00,SCT,,0.00,WeatherDisplay:10.37,2013-01-19 13:40:00,
2013-01-19 08:45:00,33.1,24.7,30.32,South,180,6.0,6.0,71,0.00,SCT,,0.00,WeatherDisplay:10.37,2013-01-19 13:45:00,
2013-01-19 08:51:00,33.3,24.9,30.32,SSW,202,13.8,13.8,71,0.00,SCT,,0.00,WeatherDisplay:10.37,2013-01-19 13:51:00,
2013-01-19 08:56:00,33.6,24.9,30.32,SW,225,5.8,5.8,70,0.00,SCT,,0.00,WeatherDisplay:10.37,2013-01-19 13:56:00,
2013-01-19 09:01:00,34.2,25.4,30.32,South,180,16.1,16.1,70,0.00,SCT,,0.00,WeatherDisplay:10.37,2013-01-19 14:01:00,
2013-01-19 09:06:00,34.5,25.4,30.32,SW,225,8.1,8.1,69,0.00,SCT,,0.00,WeatherDisplay:10.37,2013-01-19 14:06:00,
2013-01-19 09:11:00,34.5,25.4,30.32,West,270,5.8,5.8,69,0.00,SCT,,0.00,WeatherDisplay:10.37,2013-01-19 14:11:00,
2013-01-19 09:16:00,34.7,25.6,30.32,SW,225,7.2,7.2,69,0.00,SCT,,0.00,WeatherDisplay:10.37,2013-01-19 14:16:00,
2013-01-19 09:21:00,34.7,25.6,30.32,South,180,6.1,6.1,69,0.00,SCT,,0.00,WeatherDisplay:10.37,2013-01-19 14:21:00,
2013-01-19 09:26:00,34.9,25.7,30.32,WSW,248,10.4,10.4,69,0.00,SCT,,0.00,WeatherDisplay:10.37,2013-01-19 14:26:00,
2013-01-19 09:31:00,35.2,26.1,30.32,South,180,10.4,10.4,69,0.00,SCT,,0.00,WeatherDisplay:10.37,2013-01-19 14:31:00,
2013-01-19 09:36:00,35.4,25.9,30.32,SW,225,12.7,12.7,68,0.00,SCT,,0.00,WeatherDisplay:10.37,2013-01-19 14:36:00,
2013-01-19 09:42:00,35.8,26.2,30.32,SW,225,11.5,11.5,68,0.00,SCT,,0.00,WeatherDisplay:10.37,2013-01-19 14:42:00,
2013-01-19 09:47:00,36.1,26.6,30.32,WSW,248,11.5,11.5,68,0.00,SCT,,0.00,WeatherDisplay:10.37,2013-01-19 14:47:00,
2013-01-19 09:52:00,36.7,26.7,30.32,WSW,248,10.4,10.4,67,0.00,SCT,,0.00,WeatherDisplay:10.37,2013-01-19 14:52:00,
2013-01-19 09:57:00,36.9,26.6,30.32,SW,225,6.9,6.9,66,0.00,SCT,,0.00,WeatherDisplay:10.37,2013-01-19 14:57:00,
2013-01-19 10:02:00,37.6,27.2,30.32,West,270,9.2,9.2,66,0.00,SCT,,0.00,WeatherDisplay:10.37,2013-01-19 15:02:00,
2013-01-19 10:07:00,38.1,27.4,30.32,SW,225,6.9,6.9,65,0.00,SCT,,0.00,WeatherDisplay:10.37,2013-01-19 15:07:00,
2013-01-19 10:12:00,38.7,27.1,30.32,SW,225,16.1,16.1,63,0.00,SCT,,0.00,WeatherDisplay:10.37,2013-01-19 15:12:00,
2013-01-19 10:17:00,39.2,27.7,30.32,SW,225,10.4,10.4,63,0.00,SCT,,0.00,WeatherDisplay:10.37,2013-01-19 15:17:00,
2013-01-19 10:22:00,39.7,27.4,30.32,SW,225,13.8,13.8,61,0.00,SCT,,0.00,WeatherDisplay:10.37,2013-01-19 15:22:00,
2013-01-19 10:27:00,40.3,27.5,30.32,SW,225,13.8,13.8,60,0.00,SCT,,0.00,WeatherDisplay:10.37,2013-01-19 15:27:00,
2013-01-19 10:32:00,40.6,27.4,30.32,WSW,248,8.1,8.1,59,0.00,SCT,,0.00,WeatherDisplay:10.37,2013-01-19 15:32:00,
2013-01-19 10:37:00,41.2,27.9,30.32,SW,225,8.2,8.2,59,0.00,SCT,,0.00,WeatherDisplay:10.37,2013-01-19 15:37:00,
2013-01-19 10:42:00,41.7,28.0,30.32,SW,225,13.8,13.8,58,0.00,SCT,,0.00,WeatherDisplay:10.37,2013-01-19 15:42:00,
2013-01-19 10:48:00,41.9,27.8,30.32,WSW,248,10.4,10.4,57,0.00,SCT,,0.00,WeatherDisplay:10.37,2013-01-19 15:48:00,
2013-01-19 10:53:00,42.4,28.3,30.32,SW,225,10.1,10.1,57,0.00,SCT,,0.00,WeatherDisplay:10.37,2013-01-19 15:53:00,
2013-01-19 10:58:00,42.8,28.2,30.32,NNE,22,7.8,7.8,56,0.00,SCT,,0.00,WeatherDisplay:10.37,2013-01-19 15:58:00,
2013-01-19 11:03:00,43.0,28.3,30.32,South,180,10.4,10.4,56,0.00,SCT,,0.00,WeatherDisplay:10.37,2013-01-19 16:03:00,
2013-01-19 11:08:00,43.5,28.8,30.32,West,270,8.1,8.1,56,0.00,SCT,,0.00,WeatherDisplay:10.37,2013-01-19 16:08:00,
2013-01-19 11:13:00,43.9,28.7,30.32,South,180,10.4,10.4,55,0.00,SCT,,0.00,WeatherDisplay:10.37,2013-01-19 16:13:00,
2013-01-19 11:18:00,44.1,28.9,30.32,WSW,248,8.1,8.1,55,0.00,SCT,,0.00,WeatherDisplay:10.37,2013-01-19 16:18:00,
2013-01-19 11:23:00,44.6,29.0,30.32,West,270,5.8,5.8,54,0.00,SCT,,0.00,WeatherDisplay:10.37,2013-01-19 16:23:00,
2013-01-19 11:28:00,44.8,28.7,30.32,SSW,202,18.4,18.4,53,0.00,SCT,,0.00,WeatherDisplay:10.37,2013-01-19 16:28:00,
2013-01-19 11:33:00,44.6,28.0,30.32,SSW,202,12.7,12.7,52,0.00,SCT,,0.00,WeatherDisplay:10.37,2013-01-19 16:33:00,
2013-01-19 11:38:00,45.0,28.8,30.32,SW,225,11.5,11.5,53,0.00,SCT,,0.00,WeatherDisplay:10.37,2013-01-19 16:38:00,
2013-01-19 11:43:00,45.3,28.7,30.32,SSW,202,15.6,15.6,52,0.00,SCT,,0.00,WeatherDisplay:10.37,2013-01-19 16:43:00,
2013-01-19 11:48:00,45.3,27.8,30.32,WSW,248,11.5,11.5,50,0.00,SCT,,0.00,WeatherDisplay:10.37,2013-01-19 16:48:00,
2013-01-19 11:53:00,45.5,27.9,30.32,WSW,248,11.5,11.5,50,0.00,SCT,,0.00,WeatherDisplay:10.37,2013-01-19 16:53:00,
2013-01-19 11:58:00,45.5,27.9,30.32,West,270,9.2,9.2,50,0.00,SCT,,0.00,WeatherDisplay:10.37,2013-01-19 16:58:00,
2013-01-19 12:03:00,46.0,28.9,30.32,South,180,11.5,11.5,51,0.00,SCT,,0.00,WeatherDisplay:10.37,2013-01-19 17:03:00,
2013-01-19 12:08:00,46.2,28.6,30.32,South,180,11.5,11.5,50,0.00,SCT,,0.00,WeatherDisplay:10.37,2013-01-19 17:08:00,
2013-01-19 12:13:00,46.4,28.8,30.32,SW,225,11.5,11.5,50,0.00,SCT,,0.00,WeatherDisplay:10.37,2013-01-19 17:13:00,
2013-01-19 12:18:00,46.8,28.6,30.32,SSW,202,11.5,11.5,49,0.00,SCT,,0.00,WeatherDisplay:10.37,2013-01-19 17:18:00,
2013-01-19 12:24:00,47.1,28.4,30.32,South,180,18.4,18.4,48,0.00,SCT,,0.00,WeatherDisplay:10.37,2013-01-19 17:24:00,
2013-01-19 12:29:00,47.3,29.1,30.32,SSE,158,11.5,11.5,49,0.00,SCT,,0.00,WeatherDisplay:10.37,2013-01-19 17:29:00,
2013-01-19 12:35:00,47.5,29.3,30.32,WSW,248,10.8,10.8,49,0.00,SCT,,0.00,WeatherDisplay:10.37,2013-01-19 17:35:00,
2013-01-19 12:40:00,47.5,28.7,30.32,South,180,11.5,11.5,48,0.00,SCT,,0.00,WeatherDisplay:10.37,2013-01-19 17:40:00,
2013-01-19 12:45:00,47.7,29.4,30.32,South,180,8.9,8.9,49,0.00,SCT,,0.00,WeatherDisplay:10.37,2013-01-19 17:45:00,
2013-01-19 12:50:00,47.7,29.4,30.32,SW,225,8.7,8.7,49,0.00,SCT,,0.00,WeatherDisplay:10.37,2013-01-19 17:50:00,
2013-01-19 12:55:00,47.8,29.1,30.32,South,180,9.2,9.2,48,0.00,SCT,,0.00,WeatherDisplay:10.37,2013-01-19 17:55:00,
2013-01-19 13:00:00,48.0,29.2,30.32,SSE,158,8.1,8.1,48,0.00,SCT,,0.00,WeatherDisplay:10.37,2013-01-19 18:00:00,
2013-01-19 13:06:00,48.2,28.9,30.32,West,270,11.5,11.5,47,0.00,SCT,,0.00,WeatherDisplay:10.37,2013-01-19 18:06:00,
2013-01-19 13:11:00,48.4,29.1,30.32,WSW,248,9.2,9.2,47,0.00,SCT,,0.00,WeatherDisplay:10.37,2013-01-19 18:11:00,
2013-01-19 13:16:00,48.6,28.7,30.32,SW,225,9.2,9.2,46,0.00,SCT,,0.00,WeatherDisplay:10.37,2013-01-19 18:16:00,
2013-01-19 13:22:00,48.6,28.2,30.32,SW,225,8.1,8.1,45,0.00,SCT,,0.00,WeatherDisplay:10.37,2013-01-19 18:22:00,
2013-01-19 13:27:00,48.9,29.0,30.32,WSW,248,9.2,9.2,46,0.00,SCT,,0.00,WeatherDisplay:10.37,2013-01-19 18:27:00,
2013-01-19 13:32:00,48.9,28.5,30.32,WSW,248,10.4,10.4,45,0.00,SCT,,0.00,WeatherDisplay:10.37,2013-01-19 18:32:00,
2013-01-19 13:37:00,49.3,28.8,30.32,SW,225,11.5,11.5,45,0.00,SCT,,0.00,WeatherDisplay:10.37,2013-01-19 18:37:00,
2013-01-19 13:43:00,49.6,28.6,30.32,South,180,6.9,7.1,44,0.00,SCT,,0.00,WeatherDisplay:10.37,2013-01-19 18:43:00,
2013-01-19 13:48:00,50.0,28.9,30.32,SSE,158,9.2,9.2,44,0.00,SCT,,0.00,WeatherDisplay:10.37,2013-01-19 18:48:00,
2013-01-19 13:53:00,50.2,28.5,30.32,SW,225,9.2,9.2,43,0.00,SCT,,0.00,WeatherDisplay:10.37,2013-01-19 18:53:00,
2013-01-19 13:58:00,50.5,28.8,30.32,WSW,248,6.9,6.9,43,0.00,SCT,,0.00,WeatherDisplay:10.37,2013-01-19 18:58:00,
2013-01-19 14:05:00,50.7,29.0,30.32,West,270,10.4,10.4,43,0.00,SCT,,0.00,WeatherDisplay:10.37,2013-01-19 19:05:00,
2013-01-19 14:10:00,51.1,28.2,30.32,SW,225,11.5,11.5,41,0.00,SCT,,0.00,WeatherDisplay:10.37,2013-01-19 19:10:00,
2013-01-19 14:16:00,51.3,28.3,30.32,South,180,18.4,18.4,41,0.00,SCT,,0.00,WeatherDisplay:10.37,2013-01-19 19:16:00,
2013-01-19 14:21:00,51.1,28.8,30.32,WSW,248,11.5,11.5,42,0.00,SCT,,0.00,WeatherDisplay:10.37,2013-01-19 19:21:00,
2013-01-19 14:26:00,51.3,28.3,30.32,WSW,248,8.1,8.1,41,0.00,SCT,,0.00,WeatherDisplay:10.37,2013-01-19 19:26:00,
2013-01-19 14:31:00,51.4,29.1,30.32,WSW,248,8.1,8.1,42,0.00,SCT,,0.00,WeatherDisplay:10.37,2013-01-19 19:31:00,
2013-01-19 14:36:00,51.3,29.5,30.32,SSW,202,6.9,6.9,43,0.00,SCT,,0.00,WeatherDisplay:10.37,2013-01-19 19:36:00,
2013-01-19 14:41:00,51.4,29.1,30.32,SW,225,8.1,8.1,42,0.00,SCT,,0.00,WeatherDisplay:10.37,2013-01-19 19:41:00,
2013-01-19 14:46:00,51.1,28.2,30.32,SW,225,8.1,8.1,41,0.00,SCT,,0.00,WeatherDisplay:10.37,2013-01-19 19:46:00,
2013-01-19 14:51:00,51.1,28.8,30.32,WSW,248,6.9,6.9,42,0.00,SCT,,0.00,WeatherDisplay:10.37,2013-01-19 19:51:00,
2013-01-19 14:57:00,50.7,28.4,30.32,WSW,248,2.3,5.4,42,0.00,SCT,,0.00,WeatherDisplay:10.37,2013-01-19 19:57:00,
2013-01-19 15:02:00,50.7,28.4,30.32,SW,225,9.2,9.2,42,0.00,SCT,,0.00,WeatherDisplay:10.37,2013-01-19 20:02:00,
2013-01-19 15:07:00,50.5,27.7,30.32,SSW,202,9.2,9.2,41,0.00,SCT,,0.00,WeatherDisplay:10.37,2013-01-19 20:07:00,
2013-01-19 15:13:00,50.5,28.3,30.32,SSW,202,9.2,9.2,42,0.00,SCT,,0.00,WeatherDisplay:10.37,2013-01-19 20:13:00,
2013-01-19 15:18:00,50.4,28.1,30.32,SSW,202,6.9,6.9,42,0.00,SCT,,0.00,WeatherDisplay:10.37,2013-01-19 20:18:00,
2013-01-19 15:23:00,50.5,28.3,30.32,SW,225,9.2,9.2,42,0.00,SCT,,0.00,WeatherDisplay:10.37,2013-01-19 20:23:00,
2013-01-19 15:28:00,50.5,28.3,30.32,SW,225,6.9,6.9,42,0.00,SCT,,0.00,WeatherDisplay:10.37,2013-01-19 20:28:00,
2013-01-19 15:34:00,50.5,28.3,30.32,West,270,5.8,5.8,42,0.00,SCT,,0.00,WeatherDisplay:10.37,2013-01-19 20:34:00,
2013-01-19 15:39:00,50.4,28.1,30.32,WNW,292,10.4,10.4,42,0.00,SCT,,0.00,WeatherDisplay:10.37,2013-01-19 20:39:00,
2013-01-19 15:44:00,50.4,28.1,30.32,South,180,5.8,5.8,42,0.00,SCT,,0.00,WeatherDisplay:10.37,2013-01-19 20:44:00,
2013-01-19 15:50:00,50.0,27.8,30.32,SSW,202,4.6,4.6,42,0.00,SCT,,0.00,WeatherDisplay:10.37,2013-01-19 20:50:00,
2013-01-19 15:55:00,50.0,27.8,30.32,SW,225,4.6,4.6,42,0.00,SCT,,0.00,WeatherDisplay:10.37,2013-01-19 20:55:00,
2013-01-19 16:00:00,49.6,27.5,30.32,SSW,202,7.6,7.6,42,0.00,SCT,,0.00,WeatherDisplay:10.37,2013-01-19 21:00:00,
2013-01-19 16:05:00,49.1,28.1,30.32,SW,225,0.0,2.6,44,0.00,SCT,,0.00,WeatherDisplay:10.37,2013-01-19 21:05:00,
2013-01-19 16:11:00,48.9,27.9,30.32,South,180,2.3,2.6,44,0.00,SCT,,0.00,WeatherDisplay:10.37,2013-01-19 21:11:00,
2013-01-19 16:20:00,48.6,28.2,30.32,SSW,202,5.8,5.8,45,0.00,SCT,,0.00,WeatherDisplay:10.37,2013-01-19 21:20:00,
2013-01-19 16:25:00,48.2,27.8,30.32,SW,225,7.2,7.2,45,0.00,SCT,,0.00,WeatherDisplay:10.37,2013-01-19 21:25:00,
2013-01-19 16:30:00,48.2,27.8,30.32,South,180,3.5,3.5,45,0.00,SCT,,0.00,WeatherDisplay:10.37,2013-01-19 21:30:00,
2013-01-19 16:36:00,47.8,27.5,30.32,WSW,248,3.5,3.6,45,0.00,SCT,,0.00,WeatherDisplay:10.37,2013-01-19 21:36:00,
2013-01-19 16:41:00,47.7,27.9,30.32,SW,225,3.5,3.5,46,0.00,SCT,,0.00,WeatherDisplay:10.37,2013-01-19 21:41:00,
2013-01-19 16:46:00,47.7,27.9,30.32,South,180,4.6,4.6,46,0.00,SCT,,0.00,WeatherDisplay:10.37,2013-01-19 21:46:00,
2013-01-19 16:51:00,47.5,27.7,30.32,SW,225,7.2,7.2,46,0.00,SCT,,0.00,WeatherDisplay:10.37,2013-01-19 21:51:00,
2013-01-19 16:57:00,47.7,27.3,30.32,South,180,7.0,7.0,45,0.00,SCT,,0.00,WeatherDisplay:10.37,2013-01-19 21:57:00,
2013-01-19 17:02:00,47.5,28.2,30.32,South,180,2.3,2.9,47,0.00,SCT,,0.00,WeatherDisplay:10.37,2013-01-19 22:02:00,
2013-01-19 17:07:00,47.1,27.9,30.32,WSW,248,3.5,3.5,47,0.00,SCT,,0.00,WeatherDisplay:10.37,2013-01-19 22:07:00,
2013-01-19 17:12:00,46.9,27.7,30.32,NNW,338,6.1,6.1,47,0.00,SCT,,0.00,WeatherDisplay:10.37,2013-01-19 22:12:00,
2013-01-19 17:18:00,46.8,27.6,30.32,South,180,8.9,8.9,47,0.00,SCT,,0.00,WeatherDisplay:10.37,2013-01-19 22:18:00,
2013-01-19 17:23:00,46.8,27.6,30.32,SW,225,8.1,8.1,47,0.00,SCT,,0.00,WeatherDisplay:10.37,2013-01-19 22:23:00,
2013-01-19 17:29:00,46.8,28.1,30.32,SSE,158,6.9,6.9,48,0.00,SCT,,0.00,WeatherDisplay:10.37,2013-01-19 22:29:00,
2013-01-19 17:34:00,46.4,27.8,30.32,South,180,4.6,4.6,48,0.00,SCT,,0.00,WeatherDisplay:10.37,2013-01-19 22:34:00,
2013-01-19 17:39:00,46.4,27.8,30.32,SW,225,6.9,6.9,48,0.00,SCT,,0.00,WeatherDisplay:10.37,2013-01-19 22:39:00,
2013-01-19 17:44:00,46.4,27.8,30.32,South,180,7.2,7.2,48,0.00,SCT,,0.00,WeatherDisplay:10.37,2013-01-19 22:44:00,
2013-01-19 17:49:00,46.4,27.8,30.32,South,180,8.1,8.1,48,0.00,SCT,,0.00,WeatherDisplay:10.37,2013-01-19 22:49:00,
2013-01-19 17:54:00,46.2,28.1,30.32,SW,225,4.6,4.6,49,0.00,SCT,,0.00,WeatherDisplay:10.37,2013-01-19 22:54:00,
2013-01-19 17:59:00,46.2,28.1,30.32,South,180,5.2,5.2,49,0.00,SCT,,0.00,WeatherDisplay:10.37,2013-01-19 22:59:00,
2013-01-19 18:04:00,46.2,28.1,30.32,South,180,2.3,3.0,49,0.00,SCT,,0.00,WeatherDisplay:10.37,2013-01-19 23:04:00,
2013-01-19 18:09:00,46.0,27.9,30.32,South,180,2.6,3.0,49,0.00,SCT,,0.00,WeatherDisplay:10.37,2013-01-19 23:09:00,
2013-01-19 18:15:00,46.0,27.9,30.32,SW,225,4.6,4.6,49,0.00,SCT,,0.00,WeatherDisplay:10.37,2013-01-19 23:15:00,
2013-01-19 18:20:00,45.9,28.3,30.32,SSW,202,6.9,6.9,50,0.00,SCT,,0.00,WeatherDisplay:10.37,2013-01-19 23:20:00,
2013-01-19 18:25:00,46.0,28.4,30.32,South,180,6.9,6.9,50,0.00,SCT,,0.00,WeatherDisplay:10.37,2013-01-19 23:25:00,
2013-01-19 18:30:00,45.7,28.1,30.32,WSW,248,6.9,6.9,50,0.00,SCT,,0.00,WeatherDisplay:10.37,2013-01-19 23:30:00,
2013-01-19 18:35:00,45.5,28.4,30.32,South,180,4.6,4.6,51,0.00,SCT,,0.00,WeatherDisplay:10.37,2013-01-19 23:35:00,
2013-01-19 18:40:00,45.3,28.2,30.32,SSW,202,4.8,4.8,51,0.00,SCT,,0.00,WeatherDisplay:10.37,2013-01-19 23:40:00,
2013-01-19 18:46:00,45.0,27.9,30.32,SW,225,2.1,2.1,51,0.00,SCT,,0.00,WeatherDisplay:10.37,2013-01-19 23:46:00,
2013-01-19 18:51:00,44.8,28.2,30.32,SW,225,3.5,3.5,52,0.00,SCT,,0.00,WeatherDisplay:10.37,2013-01-19 23:51:00,
2013-01-19 18:56:00,44.6,28.5,30.32,SSE,158,3.5,3.5,53,0.00,SCT,,0.00,WeatherDisplay:10.37,2013-01-19 23:56:00,
2013-01-19 19:01:00,44.6,28.5,30.32,SW,225,5.3,5.3,53,0.00,SCT,,0.00,WeatherDisplay:10.37,2013-01-20 00:01:00,
2013-01-19 19:07:00,44.2,28.2,30.32,South,180,2.3,2.3,53,0.00,SCT,,0.00,WeatherDisplay:10.37,2013-01-20 00:07:00,
2013-01-19 19:13:00,44.2,28.6,30.32,SW,225,4.6,4.6,54,0.00,SCT,,0.00,WeatherDisplay:10.37,2013-01-20 00:13:00,
2013-01-19 19:18:00,44.1,28.5,30.32,South,180,5.8,5.8,54,0.00,SCT,,0.00,WeatherDisplay:10.37,2013-01-20 00:18:00,
2013-01-19 19:24:00,43.9,28.3,30.32,South,180,3.5,3.5,54,0.00,SCT,,0.00,WeatherDisplay:10.37,2013-01-20 00:24:00,
2013-01-19 19:29:00,43.9,28.7,30.32,South,180,3.5,3.5,55,0.00,SCT,,0.00,WeatherDisplay:10.37,2013-01-20 00:29:00,
2013-01-19 19:34:00,43.9,28.7,30.32,SW,225,5.8,5.8,55,0.00,SCT,,0.00,WeatherDisplay:10.37,2013-01-20 00:34:00,
2013-01-19 19:39:00,43.7,28.6,30.32,WSW,248,2.3,2.3,55,0.00,SCT,,0.00,WeatherDisplay:10.37,2013-01-20 00:39:00,
2013-01-19 19:44:00,43.5,28.4,30.32,WSW,248,6.2,6.2,55,0.00,SCT,,0.00,WeatherDisplay:10.37,2013-01-20 00:44:00,
2013-01-19 19:49:00,43.3,28.2,30.32,SSW,202,3.5,3.5,55,0.00,SCT,,0.00,WeatherDisplay:10.37,2013-01-20 00:49:00,
2013-01-19 19:54:00,43.3,28.2,30.32,South,180,2.3,2.3,55,0.00,SCT,,0.00,WeatherDisplay:10.37,2013-01-20 00:54:00,
2013-01-19 19:59:00,43.0,28.3,30.32,SW,225,4.6,4.6,56,0.00,SCT,,0.00,WeatherDisplay:10.37,2013-01-20 00:59:00,
2013-01-19 20:04:00,43.2,28.5,30.32,SSW,202,5.8,5.8,56,0.00,SCT,,0.00,WeatherDisplay:10.37,2013-01-20 01:04:00,
2013-01-19 20:09:00,42.8,28.2,30.32,SW,225,5.8,5.8,56,0.00,SCT,,0.00,WeatherDisplay:10.37,2013-01-20 01:09:00,
2013-01-19 20:15:00,42.6,28.4,30.32,West,270,2.3,2.3,57,0.00,SCT,,0.00,WeatherDisplay:10.37,2013-01-20 01:15:00,
2013-01-19 20:20:00,42.6,28.4,30.32,SW,225,4.6,4.6,57,0.00,SCT,,0.00,WeatherDisplay:10.37,2013-01-20 01:20:00,
2013-01-19 20:25:00,42.6,28.4,30.32,WSW,248,2.3,2.5,57,0.00,SCT,,0.00,WeatherDisplay:10.37,2013-01-20 01:25:00,
2013-01-19 20:30:00,42.4,28.3,30.32,SW,225,4.6,4.6,57,0.00,SCT,,0.00,WeatherDisplay:10.37,2013-01-20 01:30:00,
2013-01-19 20:36:00,42.4,28.7,30.32,SW,225,2.3,2.8,58,0.00,SCT,,0.00,WeatherDisplay:10.37,2013-01-20 01:36:00,
2013-01-19 20:41:00,42.1,28.4,30.32,South,180,4.6,4.6,58,0.00,SCT,,0.00,WeatherDisplay:10.37,2013-01-20 01:41:00,
2013-01-19 20:47:00,41.9,28.2,30.32,SSW,202,2.3,2.6,58,0.00,SCT,,0.00,WeatherDisplay:10.37,2013-01-20 01:47:00,
2013-01-19 20:52:00,41.9,28.2,30.32,WSW,248,4.6,4.6,58,0.00,SCT,,0.00,WeatherDisplay:10.37,2013-01-20 01:52:00,
2013-01-19 20:57:00,41.9,28.6,30.32,SSW,202,6.1,6.1,59,0.00,SCT,,0.00,WeatherDisplay:10.37,2013-01-20 01:57:00,
2013-01-19 21:03:00,41.9,28.6,30.32,WSW,248,4.6,4.6,59,0.00,SCT,,0.00,WeatherDisplay:10.37,2013-01-20 02:03:00,
2013-01-19 21:08:00,41.9,28.6,30.32,South,180,6.9,6.9,59,0.00,SCT,,0.00,WeatherDisplay:10.37,2013-01-20 02:08:00,
2013-01-19 21:13:00,42.1,28.8,30.32,South,180,3.5,4.1,59,0.00,SCT,,0.00,WeatherDisplay:10.37,2013-01-20 02:13:00,
2013-01-19 21:18:00,42.1,28.8,30.32,South,180,5.8,5.8,59,0.00,SCT,,0.00,WeatherDisplay:10.37,2013-01-20 02:18:00,
2013-01-19 21:23:00,42.1,28.8,30.32,SW,225,4.6,4.6,59,0.00,SCT,,0.00,WeatherDisplay:10.37,2013-01-20 02:23:00,
2013-01-19 21:28:00,41.9,28.6,30.32,South,180,6.9,6.9,59,0.00,SCT,,0.00,WeatherDisplay:10.37,2013-01-20 02:28:00,
2013-01-19 21:33:00,41.9,28.6,30.32,SSW,202,4.6,4.6,59,0.00,SCT,,0.00,WeatherDisplay:10.37,2013-01-20 02:33:00,
2013-01-19 21:39:00,42.1,28.4,30.32,SSW,202,4.6,4.6,58,0.00,SCT,,0.00,WeatherDisplay:10.37,2013-01-20 02:39:00,
2013-01-19 21:44:00,42.3,28.5,30.32,SSW,202,5.8,5.8,58,0.00,SCT,,0.00,WeatherDisplay:10.37,2013-01-20 02:44:00,
2013-01-19 21:49:00,42.3,28.5,30.32,SW,225,6.9,6.9,58,0.00,SCT,,0.00,WeatherDisplay:10.37,2013-01-20 02:49:00,
2013-01-19 21:54:00,42.4,28.7,30.32,SE,135,4.6,4.6,58,0.00,SCT,,0.00,WeatherDisplay:10.37,2013-01-20 02:54:00,
2013-01-19 22:00:00,42.4,28.7,30.32,SW,225,6.9,6.9,58,0.00,SCT,,0.00,WeatherDisplay:10.37,2013-01-20 03:00:00,
2013-01-19 22:05:00,42.4,28.7,30.32,SW,225,2.3,3.8,58,0.00,SCT,,0.00,WeatherDisplay:10.37,2013-01-20 03:05:00,
2013-01-19 22:10:00,42.6,28.9,30.32,West,270,9.2,9.2,58,0.00,SCT,,0.00,WeatherDisplay:10.37,2013-01-20 03:10:00,
2013-01-19 22:15:00,42.6,28.9,30.32,SW,225,5.8,5.8,58,0.00,SCT,,0.00,WeatherDisplay:10.37,2013-01-20 03:15:00,
2013-01-19 22:20:00,42.6,28.9,30.32,South,180,8.1,8.1,58,0.00,SCT,,0.00,WeatherDisplay:10.37,2013-01-20 03:20:00,
2013-01-19 22:25:00,42.6,28.9,30.32,SSW,202,9.2,9.2,58,0.00,SCT,,0.00,WeatherDisplay:10.37,2013-01-20 03:25:00,
2013-01-19 22:30:00,42.6,28.9,30.32,WSW,248,5.8,5.8,58,0.00,SCT,,0.00,WeatherDisplay:10.37,2013-01-20 03:30:00,
2013-01-19 22:36:00,42.6,28.9,30.32,West,270,4.6,4.6,58,0.00,SCT,,0.00,WeatherDisplay:10.37,2013-01-20 03:36:00,
2013-01-19 22:41:00,42.6,28.9,30.32,SSW,202,11.5,11.5,58,0.00,SCT,,0.00,WeatherDisplay:10.37,2013-01-20 03:41:00,
2013-01-19 22:47:00,42.4,28.7,30.32,NW,315,4.6,4.6,58,0.00,SCT,,0.00,WeatherDisplay:10.37,2013-01-20 03:47:00,
2013-01-19 22:52:00,42.3,28.9,30.32,SSW,202,3.5,3.5,59,0.00,SCT,,0.00,WeatherDisplay:10.37,2013-01-20 03:52:00,
2013-01-19 22:57:00,42.4,29.1,30.32,South,180,6.9,6.9,59,0.00,SCT,,0.00,WeatherDisplay:10.37,2013-01-20 03:57:00,
2013-01-19 23:02:00,42.3,28.9,30.32,SSW,202,6.2,6.2,59,0.00,SCT,,0.00,WeatherDisplay:10.37,2013-01-20 04:02:00,
2013-01-19 23:07:00,42.3,28.9,30.32,SW,225,3.7,3.7,59,0.00,SCT,,0.00,WeatherDisplay:10.37,2013-01-20 04:07:00,
2013-01-19 23:12:00,42.4,29.1,30.32,SW,225,5.8,5.8,59,0.00,SCT,,0.00,WeatherDisplay:10.37,2013-01-20 04:12:00,
2013-01-19 23:17:00,42.1,28.8,30.32,South,180,8.1,8.1,59,0.00,SCT,,0.00,WeatherDisplay:10.37,2013-01-20 04:17:00,
2013-01-19 23:23:00,42.1,28.8,30.32,WSW,248,4.6,4.6,59,0.00,SCT,,0.00,WeatherDisplay:10.37,2013-01-20 04:23:00,
2013-01-19 23:28:00,42.1,28.8,30.32,South,180,6.9,6.9,59,0.00,SCT,,0.00,WeatherDisplay:10.37,2013-01-20 04:28:00,
2013-01-19 23:33:00,41.9,28.6,30.32,SW,225,8.1,8.1,59,0.00,SCT,,0.00,WeatherDisplay:10.37,2013-01-20 04:33:00,
2013-01-19 23:38:00,42.1,29.2,30.32,NE,45,4.6,4.6,60,0.00,SCT,,0.00,WeatherDisplay:10.37,2013-01-20 04:38:00,
2013-01-19 23:43:00,41.9,29.0,30.32,SW,225,6.9,6.9,60,0.00,SCT,,0.00,WeatherDisplay:10.37,2013-01-20 04:43:00,
2013-01-19 23:48:00,41.7,28.8,30.32,South,180,4.6,4.6,60,0.00,SCT,,0.00,WeatherDisplay:10.37,2013-01-20 04:48:00,
2013-01-19 23:53:00,41.7,28.8,30.32,SW,225,5.8,5.8,60,0.00,SCT,,0.00,WeatherDisplay:10.37,2013-01-20 04:53:00,
2013-01-19 23:58:00,41.2,28.7,30.32,SW,225,4.6,4.6,61,0.00,SCT,,0.00,WeatherDisplay:10.37,2013-01-20 04:58:00,